#timestamp,LO_Frequency,Hit 
1502686815.6,286047007.8,N
1502686835.5,286047011.8,N
1502686855.3,286047015.6,N
1502686875.1,286047011.9,N
1502686895.8,286047013.5,N
1502686915.7,286047012.5,N
1502686935.5,286047014.5,N
1502686955.3,286047016.3,N
1502686975.2,286047018.3,N
1502686995.9,286047016.1,N
1502687015.7,286047016.8,N
1502687035.6,286047017.8,N
1502687055.4,286047018.4,N
1502687075.2,286047018.2,N
1502687095.1,286047017.9,N
1502687096.0,286047017.9,N
1502687115.8,286047019.8,N
1502687135.6,286047017.9,N
1502687155.5,286047020.2,N
1502687175.3,286047015.7,N
1502687195.1,286047018.4,N
1502687215.8,286047015.0,N
1502687235.7,286047019.7,N
1502687255.5,286047017.3,N
1502687275.3,286047017.7,N
1502687295.2,286047024.9,P
1502687315.0,286047011.9,N
1502687315.9,286047011.9,N
1502687335.8,286047009.9,N
1502687355.6,286047009.8,N
1502687375.4,286047009.4,N
1502687395.3,286047008.2,N
1502687415.1,286047008.9,N
1502687416.0,286047008.9,N
1502687435.8,286047009.2,N
1502687455.6,286047009.0,N
1502687475.5,286047006.5,N
1502687495.3,286047004.8,N
1502687515.1,286047006.1,N
1502687535.9,286047010.1,N
1502687555.7,286047009.6,N
1502687575.5,286047012.4,N
1502687595.4,286047008.3,N
1502687615.2,286047007.6,N
1502687635.0,286047007.1,N
1502687635.9,286047007.1,N
1502687655.8,286047008.6,N
1502687675.6,286047005.1,N
1502687695.4,286047004.9,N
1502687715.3,286047004.5,N
1502687735.1,286047008.5,N
1502687736.0,286047008.5,N
1502687755.8,286047008.6,N
1502687775.6,286047007.6,N
1502687795.5,286047007.0,N
1502687815.3,286047007.3,N
1502687835.2,286047010.4,P
1502687855.9,286047000.2,N
1502687875.7,286047002.8,N
1502687895.5,286047004.3,N
1502687915.4,286047002.5,N
1502687935.2,286047001.3,N
1502687955.0,286047001.9,N
1502687955.9,286047001.9,N
1502687975.8,286047002.8,N
1502687995.6,286047002.7,N
1502688015.4,286047000.5,N
1502688035.3,286046998.6,N
1502688055.1,286047000.3,N
1502688056.0,286047000.3,N
1502688075.8,286047000.5,N
1502688095.7,286046999.3,N
1502688115.5,286047001.1,N
1502688135.3,286046999.5,N
1502688155.2,286046998.5,N
1502688175.9,286046999.4,N
1502688195.7,286046994.9,N
1502688215.6,286046994.6,N
1502688235.4,286046985.7,P
1502688255.2,286046983.8,N
1502688275.1,286046983.9,N
1502688276.0,286046983.9,N
1502688295.8,286046980.9,N
1502688315.6,286046981.3,N
1502688335.5,286046979.2,P
1502688355.3,286046993.7,N
1502688375.1,286046995.9,N
1502688395.9,286046997.9,N
1502688415.7,286047001.2,N
1502688435.5,286046998.2,N
1502688455.4,286046998.4,N
1502688475.2,286046999.4,N
1502688495.0,286046994.9,N
1502688495.9,286046994.9,N
1502688515.7,286046994.3,N
1502688535.6,286046994.1,N
1502688555.4,286046993.9,N
1502688575.2,286046989.4,N
1502688595.1,286046989.7,N
1502688596.0,286046989.7,N
1502688615.8,286046989.4,N
1502688635.6,286046990.8,N
1502688655.5,286046992.1,N
1502688675.3,286046992.9,N
1502688695.5,286046992.6,N
1502688715.3,286046989.3,N
1502688735.2,286046987.0,N
1502688755.9,286046989.0,N
1502688775.7,286046992.7,N
1502688795.6,286046988.9,N
1502688815.4,286046987.5,N
1502688835.2,286046988.9,N
1502688855.1,286046991.0,N
1502688856.0,286046991.0,N
1502688875.8,286046990.1,N
1502688895.6,286046991.3,N
1502688915.5,286046991.9,N
1502688935.3,286046994.8,N
1502688955.1,286046997.6,N
1502688975.8,286047001.1,N
1502688995.7,286047004.3,N
1502689015.5,286047005.6,N
1502689035.3,286047006.3,N
1502689055.2,286047007.0,N
1502689075.0,286047004.5,N
1502689075.9,286047004.5,N
1502689095.7,286047004.5,N
1502689115.6,286047005.5,N
1502689135.4,286047004.6,N
1502689155.2,286047005.4,N
1502689175.1,286047006.9,N
1502689176.0,286047006.9,N
1502689195.8,286047003.5,N
1502689215.6,286047003.5,N
1502689235.5,286047003.0,N
1502689255.3,286047003.6,N
1502689275.1,286047005.4,N
1502689295.9,286047010.3,N
1502689315.7,286047010.5,N
1502689335.5,286047011.7,N
1502689355.4,286047009.7,N
1502689375.2,286047011.4,N
1502689395.0,286047011.2,N
1502689395.9,286047011.2,N
1502689415.8,286047010.7,N
1502689435.6,286047007.9,N
1502689455.4,286047008.3,N
1502689475.2,286047010.7,N
1502689495.1,286047010.8,P
1502689496.0,286047010.8,P
1502689515.8,286047003.1,N
1502689535.7,286047003.3,N
1502689555.5,286047005.6,N
1502689575.3,286047004.4,N
1502689595.1,286047004.5,N
1502689615.9,286047005.9,N
1502689635.7,286047005.4,N
1502689655.5,286047001.8,N
1502689675.4,286046998.2,N
1502689695.2,286046996.9,N
1502689715.0,286047001.0,N
1502689715.9,286047001.0,N
1502689735.8,286047002.1,N
1502689755.6,286047001.6,N
1502689775.4,286047002.3,N
1502689795.3,286047001.9,N
1502689815.1,286047004.3,N
1502689816.0,286047004.3,N
1502689835.8,286047002.8,N
1502689855.7,286047002.5,N
1502689875.5,286047000.6,N
1502689895.3,286046996.9,N
1502689915.2,286046998.5,N
1502689935.9,286046999.1,N
1502689955.5,286046999.3,N
1502689975.3,286047002.7,N
1502689995.1,286047000.9,N
1502690015.9,286047000.0,N
1502690035.7,286047000.6,N
1502690055.5,286046999.4,N
1502690075.4,286046998.6,N
1502690095.2,286047002.6,N
1502690115.5,286047002.6,N
1502690135.4,286047003.7,N
1502690155.2,286047003.4,N
1502690175.0,286047005.7,N
1502690175.9,286047005.7,N
1502690195.8,286047004.9,N
1502690215.6,286047006.8,N
1502690235.4,286047005.4,N
1502690255.3,286047003.8,N
1502690275.1,286047001.4,N
1502690276.0,286047001.4,N
1502690295.8,286047003.3,N
1502690315.7,286047002.1,N
1502690335.5,286047002.3,N
1502690355.3,286047002.0,N
1502690375.6,286047004.2,N
1502690395.4,286047001.3,N
